Location: Unspecified
(0.0000°N, 0.0000°E)
Time: 16:47:59
(UTC+00:00)

THEMIS D - Visible Passes

Search period start: 15 May 2026 00:00
Search period end: 25 May 2026 00:00
Orbit: 1292 x 78237 km, 7.4° (Epoch: 15 May)

Date Brightness Start Highest point End Pass type
(mag) Time Alt. Az. Time Alt. Az. Time Alt. Az.
15 May ? 07:57:10 10° WSW 16:05:58 86° N 22:03:10 10° W visible
16 May ? 11:33:06 10° W 14:48:21 88° N 21:22:56 10° W visible
17 May ? 15:22:37 10° W 16:46:38 39° W 20:24:35 10° W visible
19 May ? 12:24:41 10° E 19:31:00 80° NNE 20:58:57 38° E visible
20 May ? 11:42:02 10° E 17:41:59 83° N 00:23:24 50° WNW visible
21 May ? 11:03:34 10° E 16:56:10 84° N 23:01:13 10° W visible
22 May ? 04:13:30 40° WSW 04:15:54 62° S 04:22:50 10° ESE visible
22 May ? 10:17:11 10° E 16:17:31 84° N 22:10:57 10° W visible
23 May ? 07:46:18 10° WSW 15:34:01 85° N 21:32:13 10° W visible
24 May ? 11:22:33 10° W 14:05:00 88° N 20:51:24 10° W visible
